Year,Month,Day,Hour,Minute,Value (Times are PST for temperature in C)
2010,10,01,00,00,9.30
2010,10,01,00,01,9.30
2010,10,01,00,02,9.30
2010,10,01,00,03,9.30
2010,10,01,00,04,9.30
2010,10,01,00,05,9.30
2010,10,01,00,06,9.30
2010,10,01,00,07,9.30
2010,10,01,00,08,9.20
2010,10,01,00,09,9.20
2010,10,01,00,10,9.20
2010,10,01,00,11,9.20
2010,10,01,00,12,9.30
2010,10,01,00,13,9.30
2010,10,01,00,14,9.30
2010,10,01,00,15,9.30
2010,10,01,00,16,9.30
2010,10,01,00,17,9.30
2010,10,01,00,18,9.30
2010,10,01,00,19,9.30
2010,10,01,00,20,9.30
2010,10,01,00,21,9.30
2010,10,01,00,22,9.30
2010,10,01,00,23,9.30
2010,10,01,00,24,9.30
2010,10,01,00,25,9.30
2010,10,01,00,26,9.30
2010,10,01,00,27,9.30
2010,10,01,00,28,9.30
2010,10,01,00,29,9.30
2010,10,01,00,30,9.30
2010,10,01,00,31,9.20
2010,10,01,00,32,9.30
2010,10,01,00,33,9.30
2010,10,01,00,34,9.20
2010,10,01,00,35,9.20
2010,10,01,00,36,9.20
2010,10,01,00,37,9.20
2010,10,01,00,38,9.20
2010,10,01,00,39,9.20
2010,10,01,00,40,9.20
2010,10,01,00,41,9.20
2010,10,01,00,42,9.20
2010,10,01,00,43,9.20
2010,10,01,00,44,9.20
2010,10,01,00,45,9.20
2010,10,01,00,46,9.20
2010,10,01,00,47,9.20
2010,10,01,00,48,9.20
2010,10,01,00,49,9.10
2010,10,01,00,50,9.10
2010,10,01,00,51,9.10
2010,10,01,00,52,9.10
2010,10,01,00,53,9.10
2010,10,01,00,54,9.20
2010,10,01,00,55,9.20
2010,10,01,00,56,9.20
2010,10,01,00,57,9.20
2010,10,01,00,58,9.20
2010,10,01,00,59,9.20
2010,10,01,01,00,9.20
2010,10,01,01,01,9.30
2010,10,01,01,02,9.30
2010,10,01,01,03,9.30
2010,10,01,01,04,9.30
2010,10,01,01,05,9.30
2010,10,01,01,06,9.30
2010,10,01,01,07,9.30
2010,10,01,01,08,9.30
2010,10,01,01,09,9.30
2010,10,01,01,10,9.30
2010,10,01,01,11,9.30
2010,10,01,01,12,9.30
2010,10,01,01,13,9.30
2010,10,01,01,14,9.30
2010,10,01,01,15,9.30
2010,10,01,01,16,9.30
2010,10,01,01,17,9.30
2010,10,01,01,18,9.30
2010,10,01,01,19,9.30
2010,10,01,01,20,9.30
2010,10,01,01,21,9.30
2010,10,01,01,22,9.20
2010,10,01,01,23,9.20
2010,10,01,01,24,9.20
2010,10,01,01,25,9.20
2010,10,01,01,26,9.20
2010,10,01,01,27,9.20
2010,10,01,01,28,9.20
2010,10,01,01,29,9.10
2010,10,01,01,30,9.10
2010,10,01,01,31,9.10
2010,10,01,01,32,9.00
2010,10,01,01,33,9.00
2010,10,01,01,34,9.00
2010,10,01,01,35,9.00
2010,10,01,01,36,9.00
2010,10,01,01,37,9.00
2010,10,01,01,38,9.00
2010,10,01,01,39,9.10
2010,10,01,01,40,9.10
2010,10,01,01,41,9.10
2010,10,01,01,42,9.10
2010,10,01,01,43,9.10
2010,10,01,01,44,9.10
2010,10,01,01,45,9.10
2010,10,01,01,46,9.10
2010,10,01,01,47,9.10
2010,10,01,01,48,9.10
2010,10,01,01,49,9.10
2010,10,01,01,50,9.10
2010,10,01,01,51,9.10
2010,10,01,01,52,9.10
2010,10,01,01,53,9.10
2010,10,01,01,54,9.10
2010,10,01,01,55,9.10
2010,10,01,01,56,9.10
2010,10,01,01,57,9.10
2010,10,01,01,58,9.00
2010,10,01,01,59,9.00
2010,10,01,02,00,9.00
2010,10,01,02,01,9.00
2010,10,01,02,02,9.00
2010,10,01,02,03,9.00
2010,10,01,02,04,9.00
2010,10,01,02,05,9.00
2010,10,01,02,06,8.90
2010,10,01,02,07,8.90
2010,10,01,02,08,8.90
2010,10,01,02,09,8.90
2010,10,01,02,10,8.90
2010,10,01,02,11,8.90
2010,10,01,02,12,8.90
2010,10,01,02,13,8.90
2010,10,01,02,14,8.90
2010,10,01,02,15,8.90
2010,10,01,02,16,8.90
2010,10,01,02,17,8.90
2010,10,01,02,18,8.90
2010,10,01,02,19,8.90
2010,10,01,02,20,8.90
2010,10,01,02,21,8.90
2010,10,01,02,22,8.90
2010,10,01,02,23,8.80
2010,10,01,02,24,8.80
2010,10,01,02,25,8.80
2010,10,01,02,26,8.80
2010,10,01,02,27,8.80
2010,10,01,02,28,8.80
2010,10,01,02,29,8.80
2010,10,01,02,30,8.80
2010,10,01,02,31,8.80
2010,10,01,02,32,8.80
2010,10,01,02,33,8.80
2010,10,01,02,34,8.70
2010,10,01,02,35,8.70
2010,10,01,02,36,8.70
2010,10,01,02,37,8.70
2010,10,01,02,38,8.70
2010,10,01,02,39,8.70
2010,10,01,02,40,8.60
2010,10,01,02,41,8.60
2010,10,01,02,42,8.60
2010,10,01,02,43,8.60
2010,10,01,02,44,8.60
2010,10,01,02,45,8.60
2010,10,01,02,46,8.60
2010,10,01,02,47,8.60
2010,10,01,02,48,8.60
2010,10,01,02,49,8.60
2010,10,01,02,50,8.60
2010,10,01,02,51,8.60
2010,10,01,02,52,8.60
2010,10,01,02,53,8.60
2010,10,01,02,54,8.50
2010,10,01,02,55,8.50
2010,10,01,02,56,8.50
2010,10,01,02,57,8.50
2010,10,01,02,58,8.50
2010,10,01,02,59,8.50
2010,10,01,03,00,8.50
2010,10,01,03,01,8.50
2010,10,01,03,02,8.50
2010,10,01,03,03,8.50
2010,10,01,03,04,8.50
2010,10,01,03,05,8.50
2010,10,01,03,06,8.60
2010,10,01,03,07,8.60
2010,10,01,03,08,8.60
2010,10,01,03,09,8.60
2010,10,01,03,10,8.60
2010,10,01,03,11,8.60
2010,10,01,03,12,8.60
2010,10,01,03,13,8.60
2010,10,01,03,14,8.60
2010,10,01,03,15,8.60
2010,10,01,03,16,8.60
2010,10,01,03,17,8.60
2010,10,01,03,18,8.60
2010,10,01,03,19,8.60
2010,10,01,03,20,8.60
2010,10,01,03,21,8.60
2010,10,01,03,22,8.60
2010,10,01,03,23,8.60
2010,10,01,03,24,8.60
2010,10,01,03,25,8.60
2010,10,01,03,26,8.60
2010,10,01,03,27,8.60
2010,10,01,03,28,8.60
2010,10,01,03,29,8.60
2010,10,01,03,30,8.60
2010,10,01,03,31,8.60
2010,10,01,03,32,8.60
2010,10,01,03,33,8.60
2010,10,01,03,34,8.60
2010,10,01,03,35,8.60
2010,10,01,03,36,8.60
2010,10,01,03,37,8.60
2010,10,01,03,38,8.60
2010,10,01,03,39,8.50
2010,10,01,03,40,8.50
2010,10,01,03,41,8.50
2010,10,01,03,42,8.50
2010,10,01,03,43,8.40
2010,10,01,03,44,8.50
2010,10,01,03,45,8.50
2010,10,01,03,46,8.50
2010,10,01,03,47,8.50
2010,10,01,03,48,8.50
2010,10,01,03,49,8.50
2010,10,01,03,50,8.40
2010,10,01,03,51,8.40
2010,10,01,03,52,8.40
2010,10,01,03,53,8.40
2010,10,01,03,54,8.40
2010,10,01,03,55,8.40
2010,10,01,03,56,8.40
2010,10,01,03,57,8.40
2010,10,01,03,58,8.40
2010,10,01,03,59,8.40
2010,10,01,04,00,8.40
2010,10,01,04,01,8.40
2010,10,01,04,02,8.40
2010,10,01,04,03,8.40
2010,10,01,04,04,8.40
2010,10,01,04,05,8.40
2010,10,01,04,06,8.40
2010,10,01,04,07,8.50
2010,10,01,04,08,8.50
2010,10,01,04,09,8.50
2010,10,01,04,10,8.50
2010,10,01,04,11,8.50
2010,10,01,04,12,8.50
2010,10,01,04,13,8.40
2010,10,01,04,14,8.40
2010,10,01,04,15,8.40
2010,10,01,04,16,8.40
2010,10,01,04,17,8.40
2010,10,01,04,18,8.40
2010,10,01,04,19,8.40
2010,10,01,04,20,8.40
2010,10,01,04,21,8.30
2010,10,01,04,22,8.30
2010,10,01,04,23,8.30
2010,10,01,04,24,8.40
2010,10,01,04,25,8.40
2010,10,01,04,26,8.40
2010,10,01,04,27,8.40
2010,10,01,04,28,8.40
2010,10,01,04,29,8.40
2010,10,01,04,30,8.40
2010,10,01,04,31,8.40
2010,10,01,04,32,8.40
2010,10,01,04,33,8.40
2010,10,01,04,34,8.30
2010,10,01,04,35,8.30
2010,10,01,04,36,8.30
2010,10,01,04,37,8.30
2010,10,01,04,38,8.30
2010,10,01,04,39,8.30
2010,10,01,04,40,8.30
2010,10,01,04,41,8.30
2010,10,01,04,42,8.30
2010,10,01,04,43,8.30
2010,10,01,04,44,8.30
2010,10,01,04,45,8.30
2010,10,01,04,46,8.30
2010,10,01,04,47,8.30
2010,10,01,04,48,8.30
2010,10,01,04,49,8.30
2010,10,01,04,50,8.20
2010,10,01,04,51,8.20
2010,10,01,04,52,8.20
2010,10,01,04,53,8.20
2010,10,01,04,54,8.20
2010,10,01,04,55,8.20
2010,10,01,04,56,8.10
2010,10,01,04,57,8.10
2010,10,01,04,58,8.10
2010,10,01,04,59,8.10
2010,10,01,05,00,8.10
2010,10,01,05,01,8.10
2010,10,01,05,02,8.10
2010,10,01,05,03,8.10
2010,10,01,05,04,8.10
2010,10,01,05,05,8.10
2010,10,01,05,06,8.00
2010,10,01,05,07,8.00
2010,10,01,05,08,8.00
2010,10,01,05,09,8.00
2010,10,01,05,10,8.00
2010,10,01,05,11,8.00
2010,10,01,05,12,8.10
2010,10,01,05,13,8.10
2010,10,01,05,14,8.10
2010,10,01,05,15,8.10
2010,10,01,05,16,8.10
2010,10,01,05,17,8.10
2010,10,01,05,18,8.10
2010,10,01,05,19,8.00
2010,10,01,05,20,8.10
2010,10,01,05,21,8.10
2010,10,01,05,22,8.10
2010,10,01,05,23,8.10
2010,10,01,05,24,8.10
2010,10,01,05,25,8.10
2010,10,01,05,26,8.10
2010,10,01,05,27,8.10
2010,10,01,05,28,8.10
2010,10,01,05,29,8.10
2010,10,01,05,30,8.00
2010,10,01,05,31,8.00
2010,10,01,05,32,8.10
2010,10,01,05,33,8.10
2010,10,01,05,34,8.10
2010,10,01,05,35,8.00
2010,10,01,05,36,8.00
2010,10,01,05,37,8.00
2010,10,01,05,38,7.90
2010,10,01,05,39,7.90
2010,10,01,05,40,7.90
2010,10,01,05,41,7.90
2010,10,01,05,42,7.90
2010,10,01,05,43,7.90
2010,10,01,05,44,7.90
2010,10,01,05,45,7.90
2010,10,01,05,46,7.90
2010,10,01,05,47,7.90
2010,10,01,05,48,7.90
2010,10,01,05,49,7.90
2010,10,01,05,50,7.90
2010,10,01,05,51,7.90
2010,10,01,05,52,7.90
2010,10,01,05,53,7.90
2010,10,01,05,54,7.90
2010,10,01,05,55,7.90
2010,10,01,05,56,7.90
2010,10,01,05,57,7.90
2010,10,01,05,58,7.90
2010,10,01,05,59,8.00
2010,10,01,06,00,8.00
2010,10,01,06,01,8.00
2010,10,01,06,02,8.00
2010,10,01,06,03,8.00
2010,10,01,06,04,8.10
2010,10,01,06,05,8.00
2010,10,01,06,06,8.00
2010,10,01,06,07,8.00
2010,10,01,06,08,8.00
2010,10,01,06,09,8.00
2010,10,01,06,10,8.10
2010,10,01,06,11,8.10
2010,10,01,06,12,8.10
2010,10,01,06,13,8.10
2010,10,01,06,14,8.10
2010,10,01,06,15,8.10
2010,10,01,06,16,8.10
2010,10,01,06,17,8.10
2010,10,01,06,18,8.10
2010,10,01,06,19,8.10
2010,10,01,06,20,8.10
2010,10,01,06,21,8.00
2010,10,01,06,22,8.00
2010,10,01,06,23,8.00
2010,10,01,06,24,8.00
2010,10,01,06,25,8.00
2010,10,01,06,26,8.00
2010,10,01,06,27,8.00
2010,10,01,06,28,7.90
2010,10,01,06,29,7.90
2010,10,01,06,30,7.90
2010,10,01,06,31,7.90
2010,10,01,06,32,8.00
2010,10,01,06,33,7.90
2010,10,01,06,34,7.90
2010,10,01,06,35,7.90
2010,10,01,06,36,7.90
2010,10,01,06,37,8.00
2010,10,01,06,38,8.00
2010,10,01,06,39,7.90
2010,10,01,06,40,7.90
2010,10,01,06,41,7.90
2010,10,01,06,42,7.90
2010,10,01,06,43,7.90
2010,10,01,06,44,7.80
2010,10,01,06,45,7.80
2010,10,01,06,46,7.80
2010,10,01,06,47,7.80
2010,10,01,06,48,7.80
2010,10,01,06,49,7.80
2010,10,01,06,50,7.80
2010,10,01,06,51,7.80
2010,10,01,06,52,7.80
2010,10,01,06,53,7.80
2010,10,01,06,54,7.80
2010,10,01,06,55,7.80
2010,10,01,06,56,7.80
2010,10,01,06,57,7.80
2010,10,01,06,58,7.80
2010,10,01,06,59,7.80
2010,10,01,07,00,7.80
2010,10,01,07,01,7.90
2010,10,01,07,02,7.90
2010,10,01,07,03,7.90
2010,10,01,07,04,7.90
2010,10,01,07,05,7.90
2010,10,01,07,06,7.90
2010,10,01,07,07,7.90
2010,10,01,07,08,7.90
2010,10,01,07,09,7.90
2010,10,01,07,10,7.90
2010,10,01,07,11,8.00
2010,10,01,07,12,8.00
2010,10,01,07,13,8.00
2010,10,01,07,14,8.00
2010,10,01,07,15,8.10
2010,10,01,07,16,8.10
2010,10,01,07,17,8.10
2010,10,01,07,18,8.00
2010,10,01,07,19,7.90
2010,10,01,07,20,7.90
2010,10,01,07,21,7.90
2010,10,01,07,22,7.90
2010,10,01,07,23,7.90
2010,10,01,07,24,7.90
2010,10,01,07,25,7.90
2010,10,01,07,26,7.90
2010,10,01,07,27,7.90
2010,10,01,07,28,7.90
2010,10,01,07,29,7.90
2010,10,01,07,30,7.80
2010,10,01,07,31,7.80
2010,10,01,07,32,7.90
2010,10,01,07,33,7.90
2010,10,01,07,34,7.90
2010,10,01,07,35,7.90
2010,10,01,07,36,7.90
2010,10,01,07,37,7.90
2010,10,01,07,38,7.90
2010,10,01,07,39,7.90
2010,10,01,07,40,7.90
2010,10,01,07,41,7.90
2010,10,01,07,42,7.90
2010,10,01,07,43,7.90
2010,10,01,07,44,7.90
2010,10,01,07,45,7.90
2010,10,01,07,46,7.90
2010,10,01,07,47,7.90
2010,10,01,07,48,7.90
2010,10,01,07,49,7.90
2010,10,01,07,50,7.90
2010,10,01,07,51,7.90
2010,10,01,07,52,7.90
2010,10,01,07,53,7.90
2010,10,01,07,54,7.90
2010,10,01,07,55,8.00
2010,10,01,07,56,8.00
2010,10,01,07,57,8.00
2010,10,01,07,58,8.00
2010,10,01,07,59,8.00
2010,10,01,08,00,8.00
2010,10,01,08,01,8.10
2010,10,01,08,02,8.10
2010,10,01,08,03,8.10
2010,10,01,08,04,8.10
2010,10,01,08,05,8.10
2010,10,01,08,06,8.20
2010,10,01,08,07,8.20
2010,10,01,08,08,8.20
2010,10,01,08,09,8.20
2010,10,01,08,10,8.20
2010,10,01,08,11,8.30
2010,10,01,08,12,8.30
2010,10,01,08,13,8.30
2010,10,01,08,14,8.30
2010,10,01,08,15,8.40
2010,10,01,08,16,8.40
2010,10,01,08,17,8.40
2010,10,01,08,18,8.50
2010,10,01,08,19,8.50
2010,10,01,08,20,8.60
2010,10,01,08,21,8.60
2010,10,01,08,22,8.60
2010,10,01,08,23,8.70
2010,10,01,08,24,8.70
2010,10,01,08,25,8.80
2010,10,01,08,26,8.80
2010,10,01,08,27,8.80
2010,10,01,08,28,8.80
2010,10,01,08,29,8.90
2010,10,01,08,30,8.90
2010,10,01,08,31,8.90
2010,10,01,08,32,9.00
2010,10,01,08,33,9.00
2010,10,01,08,34,9.10
2010,10,01,08,35,9.10
2010,10,01,08,36,9.20
2010,10,01,08,37,9.30
2010,10,01,08,38,9.30
2010,10,01,08,39,9.40
2010,10,01,08,40,9.40
2010,10,01,08,41,9.50
2010,10,01,08,42,9.60
2010,10,01,08,43,9.60
2010,10,01,08,44,9.60
2010,10,01,08,45,9.70
2010,10,01,08,46,9.80
2010,10,01,08,47,9.80
2010,10,01,08,48,9.90
2010,10,01,08,49,9.90
2010,10,01,08,50,10.00
2010,10,01,08,51,10.00
2010,10,01,08,52,10.10
2010,10,01,08,53,10.20
2010,10,01,08,54,10.20
2010,10,01,08,55,10.30
2010,10,01,08,56,10.30
2010,10,01,08,57,10.40
2010,10,01,08,58,10.40
2010,10,01,08,59,10.40
2010,10,01,09,00,10.50
2010,10,01,09,01,10.50
2010,10,01,09,02,10.60
2010,10,01,09,03,10.70
2010,10,01,09,04,10.80
2010,10,01,09,05,10.80
2010,10,01,09,06,10.90
2010,10,01,09,07,10.90
2010,10,01,09,08,11.00
2010,10,01,09,09,11.10
2010,10,01,09,10,11.20
2010,10,01,09,11,11.20
2010,10,01,09,12,11.30
2010,10,01,09,13,11.30
2010,10,01,09,14,11.40
2010,10,01,09,15,11.40
2010,10,01,09,16,11.50
2010,10,01,09,17,11.50
2010,10,01,09,18,11.50
2010,10,01,09,19,11.50
2010,10,01,09,20,11.60
2010,10,01,09,21,11.60
2010,10,01,09,22,11.70
2010,10,01,09,23,11.80
2010,10,01,09,24,11.90
2010,10,01,09,25,11.90
2010,10,01,09,26,12.00
2010,10,01,09,27,12.00
2010,10,01,09,28,12.10
2010,10,01,09,29,12.10
2010,10,01,09,30,12.10
2010,10,01,09,31,12.20
2010,10,01,09,32,12.20
2010,10,01,09,33,12.30
2010,10,01,09,34,12.40
2010,10,01,09,35,12.60
2010,10,01,09,36,12.70
2010,10,01,09,37,12.80
2010,10,01,09,38,12.80
2010,10,01,09,39,12.90
2010,10,01,09,40,13.10
2010,10,01,09,41,13.20
2010,10,01,09,42,13.30
2010,10,01,09,43,13.40
2010,10,01,09,44,13.50
2010,10,01,09,45,13.60
2010,10,01,09,46,13.70
2010,10,01,09,47,13.70
2010,10,01,09,48,13.80
2010,10,01,09,49,13.80
2010,10,01,09,50,13.90
2010,10,01,09,51,14.00
2010,10,01,09,52,14.10
2010,10,01,09,53,14.20
2010,10,01,09,54,14.30
2010,10,01,09,55,14.50
2010,10,01,09,56,14.70
2010,10,01,09,57,14.80
2010,10,01,09,58,14.90
2010,10,01,09,59,15.00
2010,10,01,10,00,15.00
2010,10,01,10,01,15.00
2010,10,01,10,02,15.20
2010,10,01,10,03,15.30
2010,10,01,10,04,15.40
2010,10,01,10,05,15.40
2010,10,01,10,06,15.40
2010,10,01,10,07,15.50
2010,10,01,10,08,15.50
2010,10,01,10,09,15.60
2010,10,01,10,10,15.60
2010,10,01,10,11,15.70
2010,10,01,10,12,15.80
2010,10,01,10,13,15.80
2010,10,01,10,14,15.80
2010,10,01,10,15,15.90
2010,10,01,10,16,15.90
2010,10,01,10,17,15.90
2010,10,01,10,18,16.00
2010,10,01,10,19,16.00
2010,10,01,10,20,16.10
2010,10,01,10,21,16.10
2010,10,01,10,22,16.20
2010,10,01,10,23,16.20
2010,10,01,10,24,16.20
2010,10,01,10,25,16.30
2010,10,01,10,26,16.30
2010,10,01,10,27,16.30
2010,10,01,10,28,16.30
2010,10,01,10,29,16.30
2010,10,01,10,30,16.40
2010,10,01,10,31,16.50
2010,10,01,10,32,16.50
2010,10,01,10,33,16.60
2010,10,01,10,34,16.70
2010,10,01,10,35,16.70
2010,10,01,10,36,16.80
2010,10,01,10,37,16.80
2010,10,01,10,38,16.80
2010,10,01,10,39,16.80
2010,10,01,10,40,16.80
2010,10,01,10,41,16.80
2010,10,01,10,42,16.80
2010,10,01,10,43,16.80
2010,10,01,10,44,16.70
2010,10,01,10,45,16.70
2010,10,01,10,46,16.70
2010,10,01,10,47,16.70
2010,10,01,10,48,16.80
2010,10,01,10,49,16.80
2010,10,01,10,50,16.80
2010,10,01,10,51,16.90
2010,10,01,10,52,16.90
2010,10,01,10,53,17.00
2010,10,01,10,54,17.00
2010,10,01,10,55,17.10
2010,10,01,10,56,17.10
2010,10,01,10,57,17.10
2010,10,01,10,58,17.20
2010,10,01,10,59,17.20
2010,10,01,11,00,17.30
2010,10,01,11,01,17.40
2010,10,01,11,02,17.50
2010,10,01,11,03,17.60
2010,10,01,11,04,17.70
2010,10,01,11,05,17.80
2010,10,01,11,06,17.80
2010,10,01,11,07,18.00
2010,10,01,11,08,18.10
2010,10,01,11,09,18.20
2010,10,01,11,10,18.30
2010,10,01,11,11,18.40
2010,10,01,11,12,18.40
2010,10,01,11,13,18.30
2010,10,01,11,14,18.30
2010,10,01,11,15,18.20
2010,10,01,11,16,18.10
2010,10,01,11,17,17.90
2010,10,01,11,18,17.80
2010,10,01,11,19,17.50
2010,10,01,11,20,17.30
2010,10,01,11,21,17.20
2010,10,01,11,22,17.10
2010,10,01,11,23,16.90
2010,10,01,11,24,16.80
2010,10,01,11,25,16.70
2010,10,01,11,26,16.70
2010,10,01,11,27,16.70
2010,10,01,11,28,16.70
2010,10,01,11,29,16.60
2010,10,01,11,30,16.70
2010,10,01,11,31,16.80
2010,10,01,11,32,16.90
2010,10,01,11,33,17.00
2010,10,01,11,34,17.10
2010,10,01,11,35,17.30
2010,10,01,11,36,17.40
2010,10,01,11,37,17.50
2010,10,01,11,38,17.60
2010,10,01,11,39,17.70
2010,10,01,11,40,17.70
2010,10,01,11,41,17.70
2010,10,01,11,42,17.60
2010,10,01,11,43,17.50
2010,10,01,11,44,17.40
2010,10,01,11,45,17.30
2010,10,01,11,46,17.30
2010,10,01,11,47,17.10
2010,10,01,11,48,17.00
2010,10,01,11,49,17.00
2010,10,01,11,50,16.90
2010,10,01,11,51,17.00
2010,10,01,11,52,17.10
2010,10,01,11,53,17.20
2010,10,01,11,54,17.20
2010,10,01,11,55,17.30
2010,10,01,11,56,17.20
2010,10,01,11,57,17.30
2010,10,01,11,58,17.30
2010,10,01,11,59,17.20
2010,10,01,12,00,17.20
2010,10,01,12,01,17.10
2010,10,01,12,02,17.00
2010,10,01,12,03,16.80
2010,10,01,12,04,16.70
2010,10,01,12,05,16.60
2010,10,01,12,06,16.50
2010,10,01,12,07,16.60
2010,10,01,12,08,16.60
2010,10,01,12,09,16.60
2010,10,01,12,10,16.50
2010,10,01,12,11,16.50
2010,10,01,12,12,16.60
2010,10,01,12,13,16.70
2010,10,01,12,14,16.80
2010,10,01,12,15,16.70
2010,10,01,12,16,16.70
2010,10,01,12,17,16.70
2010,10,01,12,18,16.70
2010,10,01,12,19,16.70
2010,10,01,12,20,16.70
2010,10,01,12,21,16.70
2010,10,01,12,22,16.70
2010,10,01,12,23,16.60
2010,10,01,12,24,16.60
2010,10,01,12,25,16.50
2010,10,01,12,26,16.50
2010,10,01,12,27,16.50
2010,10,01,12,28,16.50
2010,10,01,12,29,16.60
2010,10,01,12,30,16.70
2010,10,01,12,31,16.80
2010,10,01,12,32,16.90
2010,10,01,12,33,16.90
2010,10,01,12,34,17.00
2010,10,01,12,35,17.10
2010,10,01,12,36,17.10
2010,10,01,12,37,17.20
2010,10,01,12,38,17.20
2010,10,01,12,39,17.20
2010,10,01,12,40,17.10
2010,10,01,12,41,17.10
2010,10,01,12,42,17.10
2010,10,01,12,43,17.10
2010,10,01,12,44,17.10
2010,10,01,12,45,17.10
2010,10,01,12,46,17.10
2010,10,01,12,47,17.10
2010,10,01,12,48,17.10
2010,10,01,12,49,17.10
2010,10,01,12,50,17.10
2010,10,01,12,51,17.20
2010,10,01,12,52,17.30
2010,10,01,12,53,17.30
2010,10,01,12,54,17.40
2010,10,01,12,55,17.40
2010,10,01,12,56,17.50
2010,10,01,12,57,17.60
2010,10,01,12,58,17.60
2010,10,01,12,59,17.60
2010,10,01,13,00,17.70
2010,10,01,13,01,17.80
2010,10,01,13,02,17.70
2010,10,01,13,03,17.70
2010,10,01,13,04,17.70
2010,10,01,13,05,17.70
2010,10,01,13,06,17.80
2010,10,01,13,07,17.80
2010,10,01,13,08,18.00
2010,10,01,13,09,18.10
2010,10,01,13,10,18.20
2010,10,01,13,11,18.30
2010,10,01,13,12,18.30
2010,10,01,13,13,18.40
2010,10,01,13,14,18.50
2010,10,01,13,15,18.60
2010,10,01,13,16,18.70
2010,10,01,13,17,18.80
2010,10,01,13,18,18.90
2010,10,01,13,19,19.00
2010,10,01,13,20,18.90
2010,10,01,13,21,18.90
2010,10,01,13,22,18.70
2010,10,01,13,23,18.60
2010,10,01,13,24,18.60
2010,10,01,13,25,18.60
2010,10,01,13,26,18.70
2010,10,01,13,27,18.70
2010,10,01,13,28,18.70
2010,10,01,13,29,18.70
2010,10,01,13,30,18.60
2010,10,01,13,31,18.50
2010,10,01,13,32,18.40
2010,10,01,13,33,18.40
2010,10,01,13,34,18.30
2010,10,01,13,35,18.30
2010,10,01,13,36,18.20
2010,10,01,13,37,18.20
2010,10,01,13,38,18.10
2010,10,01,13,39,18.10
2010,10,01,13,40,18.20
2010,10,01,13,41,18.20
2010,10,01,13,42,18.20
2010,10,01,13,43,18.30
2010,10,01,13,44,18.30
2010,10,01,13,45,18.40
2010,10,01,13,46,18.40
2010,10,01,13,47,18.40
2010,10,01,13,48,18.40
2010,10,01,13,49,18.50
2010,10,01,13,50,18.50
2010,10,01,13,51,18.60
2010,10,01,13,52,18.70
2010,10,01,13,53,18.70
2010,10,01,13,54,18.70
2010,10,01,13,55,18.70
2010,10,01,13,56,18.60
2010,10,01,13,57,18.60
2010,10,01,13,58,18.50
2010,10,01,13,59,18.40
2010,10,01,14,00,18.40
2010,10,01,14,01,18.30
2010,10,01,14,02,18.30
2010,10,01,14,03,18.30
2010,10,01,14,04,18.20
2010,10,01,14,05,18.30
2010,10,01,14,06,18.40
2010,10,01,14,07,18.50
2010,10,01,14,08,18.60
2010,10,01,14,09,18.70
2010,10,01,14,10,18.90
2010,10,01,14,11,19.00
2010,10,01,14,12,19.10
2010,10,01,14,13,19.20
2010,10,01,14,14,19.30
2010,10,01,14,15,19.40
2010,10,01,14,16,19.40
2010,10,01,14,17,19.40
2010,10,01,14,18,19.40
2010,10,01,14,19,19.50
2010,10,01,14,20,19.50
2010,10,01,14,21,19.50
2010,10,01,14,22,19.60
2010,10,01,14,23,19.60
2010,10,01,14,24,19.70
2010,10,01,14,25,19.80
2010,10,01,14,26,19.80
2010,10,01,14,27,19.90
2010,10,01,14,28,19.80
2010,10,01,14,29,19.70
2010,10,01,14,30,19.60
2010,10,01,14,31,19.60
2010,10,01,14,32,19.60
2010,10,01,14,33,19.60
2010,10,01,14,34,19.70
2010,10,01,14,35,19.70
2010,10,01,14,36,19.80
2010,10,01,14,37,19.80
2010,10,01,14,38,19.80
2010,10,01,14,39,19.90
2010,10,01,14,40,19.90
2010,10,01,14,41,19.90
2010,10,01,14,42,19.90
2010,10,01,14,43,20.00
2010,10,01,14,44,20.00
2010,10,01,14,45,20.10
2010,10,01,14,46,20.20
2010,10,01,14,47,20.20
2010,10,01,14,48,20.30
2010,10,01,14,49,20.30
2010,10,01,14,50,20.30
2010,10,01,14,51,20.40
2010,10,01,14,52,20.40
2010,10,01,14,53,20.40
2010,10,01,14,54,20.50
2010,10,01,14,55,20.60
2010,10,01,14,56,20.60
2010,10,01,14,57,20.70
2010,10,01,14,58,20.70
2010,10,01,14,59,20.70
2010,10,01,15,00,20.70
2010,10,01,15,01,20.70
2010,10,01,15,02,20.70
2010,10,01,15,03,20.70
2010,10,01,15,04,20.70
2010,10,01,15,05,20.80
2010,10,01,15,06,20.80
2010,10,01,15,07,20.80
2010,10,01,15,08,20.90
2010,10,01,15,09,21.00
2010,10,01,15,10,21.00
2010,10,01,15,11,21.10
2010,10,01,15,12,21.10
2010,10,01,15,13,21.20
2010,10,01,15,14,21.20
2010,10,01,15,15,21.20
2010,10,01,15,16,21.10
2010,10,01,15,17,21.10
2010,10,01,15,18,21.00
2010,10,01,15,19,20.90
2010,10,01,15,20,20.80
2010,10,01,15,21,20.70
2010,10,01,15,22,20.50
2010,10,01,15,23,20.30
2010,10,01,15,24,20.10
2010,10,01,15,25,19.90
2010,10,01,15,26,19.80
2010,10,01,15,27,19.80
2010,10,01,15,28,19.80
2010,10,01,15,29,19.80
2010,10,01,15,30,19.90
2010,10,01,15,31,20.00
2010,10,01,15,32,20.00
2010,10,01,15,33,20.00
2010,10,01,15,34,20.10
2010,10,01,15,35,20.20
2010,10,01,15,36,20.20
2010,10,01,15,37,20.30
2010,10,01,15,38,20.30
2010,10,01,15,39,20.30
2010,10,01,15,40,20.20
2010,10,01,15,41,19.90
2010,10,01,15,42,19.70
2010,10,01,15,43,19.50
2010,10,01,15,44,19.40
2010,10,01,15,45,19.30
2010,10,01,15,46,19.30
2010,10,01,15,47,19.20
2010,10,01,15,48,19.20
2010,10,01,15,49,19.20
2010,10,01,15,50,19.10
2010,10,01,15,51,19.10
2010,10,01,15,52,19.20
2010,10,01,15,53,19.20
2010,10,01,15,54,19.20
2010,10,01,15,55,19.20
2010,10,01,15,56,19.10
2010,10,01,15,57,19.10
2010,10,01,15,58,19.10
2010,10,01,15,59,19.10
2010,10,01,16,00,19.10
2010,10,01,16,01,19.10
2010,10,01,16,02,19.10
2010,10,01,16,03,19.10
2010,10,01,16,04,19.20
2010,10,01,16,05,19.20
2010,10,01,16,06,19.30
2010,10,01,16,07,19.30
2010,10,01,16,08,19.40
2010,10,01,16,09,19.40
2010,10,01,16,10,19.50
2010,10,01,16,11,19.50
2010,10,01,16,12,19.60
2010,10,01,16,13,19.60
2010,10,01,16,14,19.60
2010,10,01,16,15,19.70
2010,10,01,16,16,19.70
2010,10,01,16,17,19.80
2010,10,01,16,18,19.90
2010,10,01,16,19,19.90
2010,10,01,16,20,19.90
2010,10,01,16,21,20.00
2010,10,01,16,22,20.00
2010,10,01,16,23,20.00
2010,10,01,16,24,20.10
2010,10,01,16,25,20.10
2010,10,01,16,26,20.00
2010,10,01,16,27,19.90
2010,10,01,16,28,19.70
2010,10,01,16,29,19.50
2010,10,01,16,30,19.20
2010,10,01,16,31,18.90
2010,10,01,16,32,18.70
2010,10,01,16,33,18.40
2010,10,01,16,34,18.10
2010,10,01,16,35,17.90
2010,10,01,16,36,17.70
2010,10,01,16,37,17.60
2010,10,01,16,38,17.50
2010,10,01,16,39,17.40
2010,10,01,16,40,17.40
2010,10,01,16,41,17.30
2010,10,01,16,42,17.20
2010,10,01,16,43,17.20
2010,10,01,16,44,17.10
2010,10,01,16,45,17.10
2010,10,01,16,46,17.10
2010,10,01,16,47,17.10
2010,10,01,16,48,17.10
2010,10,01,16,49,17.10
2010,10,01,16,50,17.10
2010,10,01,16,51,17.10
2010,10,01,16,52,17.20
2010,10,01,16,53,17.20
2010,10,01,16,54,17.30
2010,10,01,16,55,17.30
2010,10,01,16,56,17.30
2010,10,01,16,57,17.30
2010,10,01,16,58,17.30
2010,10,01,16,59,17.30
2010,10,01,17,00,17.30
2010,10,01,17,01,17.20
2010,10,01,17,02,17.00
2010,10,01,17,03,16.90
2010,10,01,17,04,16.70
2010,10,01,17,05,16.60
2010,10,01,17,06,16.60
2010,10,01,17,07,16.60
2010,10,01,17,08,16.50
2010,10,01,17,09,16.50
2010,10,01,17,10,16.50
2010,10,01,17,11,16.50
2010,10,01,17,12,16.50
2010,10,01,17,13,16.50
2010,10,01,17,14,16.50
2010,10,01,17,15,16.50
2010,10,01,17,16,16.50
2010,10,01,17,17,16.50
2010,10,01,17,18,16.60
2010,10,01,17,19,16.60
2010,10,01,17,20,16.50
2010,10,01,17,21,16.50
2010,10,01,17,22,16.40
2010,10,01,17,23,16.40
2010,10,01,17,24,16.30
2010,10,01,17,25,16.30
2010,10,01,17,26,16.30
2010,10,01,17,27,16.40
2010,10,01,17,28,16.40
2010,10,01,17,29,16.50
2010,10,01,17,30,16.50
2010,10,01,17,31,16.60
2010,10,01,17,32,16.60
2010,10,01,17,33,16.70
2010,10,01,17,34,16.80
2010,10,01,17,35,16.80
2010,10,01,17,36,16.90
2010,10,01,17,37,16.90
2010,10,01,17,38,17.00
2010,10,01,17,39,17.10
2010,10,01,17,40,17.20
2010,10,01,17,41,17.30
2010,10,01,17,42,17.40